Location: Alma
(38.7220°N, 88.9090°W)
Time: 23:02:52
(UTC-06:00)

Vanguard 2 - Pass Details

Date: 19 November 2019
Orbit: 553 x 2938 km, 32.9° (Epoch: 07 December)

Event Time Altitude Azimuth Distance (km) Brightness Sun altitude
Rises 06:14:16 0° 217° (SW) 6,277 12.0 -5.8°
Reaches altitude 10° 06:19:41 10° 207° (SSW) 4,914 11.6 -4.9°
Maximum altitude 06:29:52 27° 157° (SSE) 2,899 11.1 -3.0°
Drops below altitude 10° 06:36:55 10° 103° (ESE) 3,331 12.7 -1.8°
Sets 06:39:47 0° 91° (E) 3,993 12.7 -1.2°
